This demonstration page uses our WeatherBlox Daily Observations layout. Learn more.

Left ArrowRight Arrow

44.89941, -97.11507

Hourly Observations for April 23, 2016

Temp ( °F °C ) Dew Point ( °F °C ) Humidity (%) Winds ( mph kmh ) Pressure ( in mb ) Visibility ( mi km ) Precip ( " mm )
12:53 am 00:53 Clear 49 9.4 39 3.9 69 69 SE 10 17 30.04 1017 10 16 0.00 0.00
1:53 am 01:53 Clear 49 9.4 40 4.4 71 71 SSE 12 19 30.03 1017 10 16 0.00 0.00
2:53 am 02:53 Clear 48 8.9 40 4.4 74 74 SSE 17 28 30.00 1016 10 16 0.00 0.00
3:53 am 03:53 Clear 47 8.3 40 4.4 77 77 SSE 13 20 29.98 1015 10 16 0.00 0.00
4:53 am 04:53 Clear 46 7.8 40 4.4 79 79 SSE 15 24 29.96 1015 10 16 0.00 0.00
5:53 am 05:53 Clear 45 7.2 40 4.4 83 83 SSE 14 22 29.96 1014 9 14 0.00 0.00
6:53 am 06:53 Sunny 45 7.2 41 5 86 86 SSE 12 19 29.96 1015 8 13 0.00 0.00
7:53 am 07:53 Sunny 49 9.4 43 6.1 80 80 SSE 16 26 29.94 1014 9 14 0.00 0.00
8:53 am 08:53 Sunny 55 12.8 46 7.8 72 72 SSE 13 20 29.91 1013 10 16 0.00 0.00
9:53 am 09:53 Sunny 59 15 47 8.3 64 64 SSE 17 28 29.88 1012 9 14 0.00 0.00
10:53 am 10:53 Sunny 63 17.2 47 8.3 56 56 SSE 23 37 29.85 1011 10 16 0.00 0.00
11:53 am 11:53 Sunny 68 20 46 7.8 45 45 S 23 37 29.82 1010 10 16 0.00 0.00
12:53 pm 12:53 Sunny 71 21.7 47 8.3 42 42 SSE 24 39 29.78 1008 10 16 0.00 0.00
1:53 pm 13:53 Sunny 74 23.3 49 9.4 41 41 SSE 25 41 29.74 1007 10 16 0.00 0.00
2:53 pm 14:53 Sunny 76 24.4 49 9.4 39 39 SSE 30 48 29.72 1006 10 16 0.00 0.00
3:53 pm 15:53 Sunny 76 24.4 50 10 40 40 SSE 24 39 29.69 1005 10 16 0.00 0.00
4:53 pm 16:53 Sunny 76 24.4 51 10.6 42 42 S 25 41 29.67 1005 10 16 0.00 0.00
5:53 pm 17:53 Sunny 74 23.3 52 11.1 46 46 S 24 39 29.67 1005 10 16 0.00 0.00
6:53 pm 18:53 Sunny 73 22.8 53 11.7 50 50 SSE 15 24 29.67 1005 10 16 0.00 0.00
7:53 pm 19:53 Sunny 72 22.2 52 11.1 50 50 SE 9 15 29.68 1005 10 16 0.00 0.00
8:53 pm 20:53 Clear 69 20.6 52 11.1 55 55 SE 10 17 29.67 1005 10 16 0.00 0.00
9:53 pm 21:53 Clear 68 20 51 10.6 55 55 SE 15 24 29.67 1005 10 16 0.00 0.00
10:53 pm 22:53 Clear 67 19.4 50 10 55 55 SE 14 22 29.65 1004 10 16 0.00 0.00
11:53 pm 23:53 Clear 65 18.3 50 10 59 59 ESE 12 19 29.64 1004 10 16 0.00 0.00

Powered by AerisWeather